| time (UTC) | temp F | wind direction | speed MPH | gust MPH | rain 1hr in | rain 24hr in | rain mn in | humidity % | barometer mb |
| 20260502164033 | 62 | 119 | 7.0 | 12.0 | 0.00 | 0.00 | 0.00 | 32 | 1017.6 |
| 20260502163532 | 62 | 134 | 7.0 | 12.0 | 0.00 | 0.00 | 0.00 | 34 | 1017.7 |
| 20260502163044 | 62 | 135 | 6.0 | 12.0 | 0.00 | 0.00 | 0.00 | 34 | 1017.7 |
| 20260502162530 | 61 | 132 | 8.0 | 12.0 | 0.00 | 0.00 | 0.00 | 35 | 1017.7 |
| 20260502162027 | 60 | 153 | 9.0 | 12.0 | 0.00 | 0.00 | 0.00 | 37 | 1017.8 |
| 20260502161526 | 60 | 136 | 7.0 | 11.0 | 0.00 | 0.00 | 0.00 | 38 | 1017.8 |
| 20260502161025 | 59 | 130 | 6.0 | 10.0 | 0.00 | 0.00 | 0.00 | 39 | 1018.0 |
| 20260502160525 | 57 | 150 | 8.0 | 10.0 | 0.00 | 0.00 | 0.00 | 40 | 1018.0 |
| 20260502152010 | 48 | 162 | 2.0 | 6.0 | 0.00 | 0.00 | 0.00 | 51 | 1018.6 |
| 20260502151524 | 47 | 146 | 1.0 | 5.0 | 0.00 | 0.00 | 0.00 | 51 | 1018.7 |
| 20260502151007 | 46 | 181 | 2.0 | 4.0 | 0.00 | 0.00 | 0.00 | 51 | 1018.8 |
| 20260502150505 | 45 | 191 | 2.0 | 5.0 | 0.00 | 0.00 | 0.00 | 49 | 1018.9 |
| 20260502130539 | 24 | 190 | 1.0 | 2.0 | 0.00 | 0.00 | 0.00 | 1 | 1018.8 |
| 20260502123529 | 27 | 190 | 0.0 | 0.0 | 0.00 | 0.00 | 0.00 | 1 | 1018.7 |
| 20260502123036 | 27 | 190 | 0.0 | 0.0 | 0.00 | 0.00 | 0.00 | 1 | 1018.6 |
| 20260502122530 | 27 | 190 | 0.0 | 0.0 | 0.00 | 0.00 | 0.00 | 1 | 1018.6 |
| 20260502122028 | 26 | 190 | 0.0 | 2.0 | 0.00 | 0.00 | 0.00 | 1 | 1018.6 |
| 20260502121524 | 25 | 190 | 0.0 | 2.0 | 0.00 | 0.00 | 0.00 | 1 | 1018.6 |
| 20260502121022 | 25 | 190 | 0.0 | 2.0 | 0.00 | 0.00 | 0.00 | 1 | 1018.5 |
| 20260502120521 | 26 | 190 | 0.0 | 2.0 | 0.00 | 0.00 | 0.00 | 1 | 1018.5 |
| 20260502115518 | 27 | 190 | 0.0 | 0.0 | 0.00 | 0.00 | 0.00 | 1 | 1018.4 |
| 20260502115016 | 27 | 190 | 0.0 | 4.0 | 0.00 | 0.00 | 0.00 | 1 | 1018.4 |
| 20260502114515 | 27 | 190 | 1.0 | 4.0 | 0.00 | 0.00 | 0.00 | 1 | 1018.5 |
| 20260502114014 | 27 | 190 | 2.0 | 4.0 | 0.00 | 0.00 | 0.00 | 1 | 1018.4 |
| 20260502113514 | 27 | 191 | 0.0 | 3.0 | 0.00 | 0.00 | 0.00 | 1 | 1018.5 |
| 20260502113011 | 27 | 190 | 1.0 | 2.0 | 0.00 | 0.00 | 0.00 | 1 | 1018.5 |
| 20260502112509 | 26 | 190 | 0.0 | 2.0 | 0.00 | 0.00 | 0.00 | 1 | 1018.5 |
| 20260502112007 | 25 | 190 | 1.0 | 2.0 | 0.00 | 0.00 | 0.00 | 1 | 1018.4 |
| 20260502111510 | 25 | 190 | 1.0 | 2.0 | 0.00 | 0.00 | 0.00 | 1 | 1018.4 |
| 20260502111005 | 25 | 190 | 0.0 | 1.0 | 0.00 | 0.00 | 0.00 | 6 | 1018.4 |
| 20260502110504 | 25 | 190 | 0.0 | 0.0 | 0.00 | 0.00 | 0.00 | 12 | 1018.4 |
| 20260502110002 | 26 | 190 | 0.0 | 0.0 | 0.00 | 0.00 | 0.00 | 16 | 1018.5 |
| 20260502105501 | 27 | 190 | 0.0 | 2.0 | 0.00 | 0.00 | 0.00 | 18 | 1018.4 |
| 20260502105059 | 28 | 190 | 1.0 | 2.0 | 0.00 | 0.00 | 0.00 | 18 | 1018.4 |
| 20260502104558 | 30 | 190 | 1.0 | 2.0 | 0.00 | 0.00 | 0.00 | 5 | 1018.4 |
| 20260502104056 | 31 | 190 | 0.0 | 0.0 | 0.00 | 0.00 | 0.00 | 1 | 1018.4 |
| 20260502103555 | 31 | 190 | 0.0 | 2.0 | 0.00 | 0.00 | 0.00 | 1 | 1018.4 |
| 20260502103104 | 30 | 190 | 0.0 | 3.0 | 0.00 | 0.00 | 0.00 | 1 | 1018.5 |
| 20260502102552 | 30 | 190 | 1.0 | 3.0 | 0.00 | 0.00 | 0.00 | 1 | 1018.4 |
| 20260502102051 | 30 | 190 | 1.0 | 3.0 | 0.00 | 0.00 | 0.00 | 1 | 1018.5 |
| 20260502101559 | 30 | 190 | 0.0 | 2.0 | 0.00 | 0.00 | 0.00 | 1 | 1018.3 |
| 20260502101047 | 30 | 190 | 0.0 | 2.0 | 0.00 | 0.00 | 0.00 | 1 | 1018.3 |
| 20260502100547 | 30 | 190 | 1.0 | 2.0 | 0.00 | 0.00 | 0.00 | 8 | 1018.3 |
| 20260502100108 | 29 | 190 | 0.0 | 2.0 | 0.00 | 0.00 | 0.00 | 16 | 1018.4 |
| 20260502091534 | 31 | 190 | 0.0 | 0.0 | 0.00 | 0.00 | 0.00 | 40 | 1018.1 |
| 20260502091034 | 32 | 190 | 0.0 | 0.0 | 0.00 | 0.00 | 0.00 | 41 | 1018.2 |
| 20260502090532 | 32 | 190 | 0.0 | 0.0 | 0.00 | 0.00 | 0.00 | 39 | 1018.1 |
| 20260502071518 | 35 | 218 | 1.0 | 4.0 | 0.00 | 0.00 | 0.00 | 51 | 1017.7 |
| 20260502071016 | 36 | 181 | 1.0 | 4.0 | 0.00 | 0.00 | 0.00 | 53 | 1017.7 |
| 20260502070516 | 36 | 181 | 2.0 | 4.0 | 0.00 | 0.00 | 0.00 | 52 | 1017.6 |
| 20260502070015 | 37 | 181 | 2.0 | 4.0 | 0.00 | 0.00 | 0.00 | 52 | 1017.6 |
| 20260502065514 | 37 | 181 | 2.0 | 4.0 | 0.00 | 0.00 | 0.00 | 54 | 1017.5 |
| 20260502065013 | 36 | 196 | 2.0 | 4.0 | 0.00 | 0.00 | 0.00 | 54 | 1017.5 |
| 20260502064512 | 36 | 152 | 2.0 | 5.0 | 0.00 | 0.00 | 0.00 | 55 | 1017.4 |
| 20260502064017 | 36 | 159 | 3.0 | 6.0 | 0.00 | 0.00 | 0.00 | 55 | 1017.3 |
| 20260502063511 | 36 | 159 | 3.0 | 6.0 | 0.00 | 0.00 | 0.00 | 56 | 1017.3 |
| 20260502063009 | 37 | 165 | 3.0 | 5.0 | 0.00 | 0.00 | 0.00 | 56 | 1017.3 |
| 20260502062512 | 38 | 165 | 2.0 | 6.0 | 0.00 | 0.00 | 0.00 | 56 | 1017.2 |
| 20260502062006 | 38 | 175 | 3.0 | 6.0 | 0.00 | 0.00 | 0.00 | 56 | 1017.2 |
| 20260502061504 | 39 | 141 | 2.0 | 5.0 | 0.00 | 0.00 | 0.00 | 55 | 1017.2 |
| 20260502061003 | 40 | 155 | 3.0 | 6.0 | 0.00 | 0.00 | 0.00 | 53 | 1017.0 |
| 20260502060502 | 44 | 163 | 3.0 | 6.0 | 0.00 | 0.00 | 0.00 | 50 | 1017.0 |
| 20260502060101 | 45 | 350 | 2.0 | 4.0 | 0.00 | 0.00 | 0.00 | 51 | 1016.9 |
| 20260502055559 | 45 | 350 | 2.0 | 4.0 | 0.00 | 0.00 | 0.00 | 51 | 1016.9 |
| 20260502055058 | 45 | 350 | 1.0 | 3.0 | 0.00 | 0.00 | 0.00 | 51 | 1016.8 |
| 20260502054557 | 44 | 350 | 1.0 | 4.0 | 0.00 | 0.00 | 0.00 | 52 | 1016.8 |
| 20260502054059 | 44 | 299 | 1.0 | 5.0 | 0.00 | 0.00 | 0.00 | 52 | 1016.8 |
| 20260502053553 | 45 | 38 | 2.0 | 5.0 | 0.00 | 0.00 | 0.00 | 51 | 1016.7 |
| 20260502053102 | 46 | 51 | 1.0 | 4.0 | 0.00 | 0.00 | 0.00 | 50 | 1016.8 |
| 20260502052551 | 47 | 70 | 1.0 | 5.0 | 0.00 | 0.00 | 0.00 | 48 | 1016.8 |
| 20260502052049 | 47 | 33 | 0.0 | 6.0 | 0.00 | 0.00 | 0.00 | 47 | 1016.7 |
| 20260502051548 | 47 | 20 | 2.0 | 4.0 | 0.00 | 0.00 | 0.00 | 48 | 1016.6 |
| 20260502051047 | 47 | 14 | 2.0 | 4.0 | 0.00 | 0.00 | 0.00 | 48 | 1016.7 |
| 20260502050545 | 47 | 22 | 2.0 | 4.0 | 0.00 | 0.00 | 0.00 | 48 | 1016.6 |
| 20260502050043 | 47 | 3 | 2.0 | 5.0 | 0.00 | 0.00 | 0.00 | 48 | 1016.7 |
| 20260502045544 | 47 | 6 | 2.0 | 5.0 | 0.00 | 0.00 | 0.00 | 48 | 1016.7 |
| 20260502045043 | 47 | 359 | 2.0 | 5.0 | 0.00 | 0.00 | 0.00 | 48 | 1016.7 |
| 20260502044540 | 47 | 9 | 1.0 | 4.0 | 0.00 | 0.00 | 0.00 | 48 | 1016.7 |
| 20260502044038 | 47 | 9 | 2.0 | 4.0 | 0.00 | 0.00 | 0.00 | 48 | 1016.8 |
| 20260502043536 | 47 | 315 | 0.0 | 4.0 | 0.00 | 0.00 | 0.00 | 50 | 1016.8 |
| 20260502043036 | 47 | 41 | 1.0 | 4.0 | 0.00 | 0.00 | 0.00 | 51 | 1016.6 |
| 20260502042533 | 47 | 312 | 2.0 | 4.0 | 0.00 | 0.00 | 0.00 | 50 | 1016.6 |
| 20260502042033 | 47 | 326 | 1.0 | 5.0 | 0.00 | 0.00 | 0.00 | 50 | 1016.7 |
| 20260502041532 | 47 | 317 | 2.0 | 6.0 | 0.00 | 0.00 | 0.00 | 50 | 1016.6 |
| 20260502041029 | 47 | 328 | 3.0 | 6.0 | 0.00 | 0.00 | 0.00 | 50 | 1016.5 |
| 20260502040527 | 47 | 282 | 3.0 | 5.0 | 0.00 | 0.00 | 0.00 | 52 | 1016.5 |
| 20260502040026 | 47 | 288 | 2.0 | 4.0 | 0.00 | 0.00 | 0.00 | 51 | 1016.4 |
| 20260502035524 | 47 | 293 | 2.0 | 4.0 | 0.00 | 0.00 | 0.00 | 50 | 1016.4 |
| 20260502035123 | 47 | 295 | 0.0 | 4.0 | 0.00 | 0.00 | 0.00 | 49 | 1016.3 |
| 20260502034522 | 48 | 304 | 2.0 | 6.0 | 0.00 | 0.00 | 0.00 | 49 | 1016.2 |
| 20260502034021 | 48 | 300 | 3.0 | 6.0 | 0.00 | 0.00 | 0.00 | 48 | 1016.3 |
| 20260502033519 | 48 | 305 | 2.0 | 7.0 | 0.00 | 0.00 | 0.00 | 48 | 1016.2 |
| 20260502033024 | 49 | 307 | 3.0 | 8.0 | 0.00 | 0.00 | 0.00 | 48 | 1016.1 |
| 20260502032517 | 49 | 312 | 5.0 | 8.0 | 0.00 | 0.00 | 0.00 | 47 | 1016.0 |
| 20260502032019 | 49 | 328 | 3.0 | 6.0 | 0.00 | 0.00 | 0.00 | 48 | 1016.0 |
| 20260502031517 | 49 | 315 | 4.0 | 6.0 | 0.00 | 0.00 | 0.00 | 47 | 1015.9 |
| 20260502031016 | 49 | 317 | 3.0 | 6.0 | 0.00 | 0.00 | 0.00 | 47 | 1015.7 |
| 20260502030515 | 49 | 305 | 3.0 | 6.0 | 0.00 | 0.00 | 0.00 | 47 | 1015.7 |
| 20260502030013 | 49 | 330 | 1.0 | 6.0 | 0.00 | 0.00 | 0.00 | 47 | 1015.7 |
| 20260502025512 | 49 | 317 | 3.0 | 8.0 | 0.00 | 0.00 | 0.00 | 46 | 1015.6 |
| 20260502025010 | 50 | 313 | 3.0 | 8.0 | 0.00 | 0.00 | 0.00 | 45 | 1015.5 |
| 20260502024509 | 50 | 338 | 3.0 | 6.0 | 0.00 | 0.00 | 0.00 | 44 | 1015.5 |
| 20260502024011 | 51 | 315 | 2.0 | 5.0 | 0.00 | 0.00 | 0.00 | 43 | 1015.5 |
| 20260502023506 | 52 | 345 | 1.0 | 5.0 | 0.00 | 0.00 | 0.00 | 43 | 1015.5 |
| 20260502023005 | 53 | 315 | 2.0 | 5.0 | 0.00 | 0.00 | 0.00 | 41 | 1015.5 |
| 20260502022503 | 53 | 311 | 2.0 | 5.0 | 0.00 | 0.00 | 0.00 | 40 | 1015.5 |
| 20260502022003 | 54 | 345 | 1.0 | 5.0 | 0.00 | 0.00 | 0.00 | 41 | 1015.4 |
| 20260502021608 | 55 | 345 | 1.0 | 5.0 | 0.00 | 0.00 | 0.00 | 39 | 1015.3 |
| 20260502021058 | 55 | 6 | 2.0 | 5.0 | 0.00 | 0.00 | 0.00 | 37 | 1015.3 |
| 20260502020557 | 56 | 1 | 3.0 | 6.0 | 0.00 | 0.00 | 0.00 | 36 | 1015.2 |
| 20260502020056 | 57 | 3 | 3.0 | 6.0 | 0.00 | 0.00 | 0.00 | 36 | 1015.2 |
| 20260502015554 | 58 | 15 | 3.0 | 10.0 | 0.00 | 0.00 | 0.00 | 35 | 1015.2 |
| 20260502015053 | 59 | 1 | 5.0 | 11.0 | 0.00 | 0.00 | 0.00 | 33 | 1015.2 |
| 20260502014551 | 59 | 355 | 6.0 | 11.0 | 0.00 | 0.00 | 0.00 | 33 | 1015.2 |
| 20260502014049 | 59 | 355 | 6.0 | 11.0 | 0.00 | 0.00 | 0.00 | 32 | 1015.1 |
| 20260502013548 | 59 | 355 | 6.0 | 12.0 | 0.00 | 0.00 | 0.00 | 33 | 1015.1 |
| 20260502013047 | 60 | 332 | 8.0 | 14.0 | 0.00 | 0.00 | 0.00 | 32 | 1015.1 |
| 20260502012550 | 60 | 345 | 9.0 | 14.0 | 0.00 | 0.00 | 0.00 | 31 | 1015.1 |
| 20260502012044 | 60 | 345 | 8.0 | 14.0 | 0.00 | 0.00 | 0.00 | 31 | 1015.1 |
| 20260502011543 | 60 | 329 | 8.0 | 13.0 | 0.00 | 0.00 | 0.00 | 31 | 1015.0 |
| 20260502011041 | 60 | 338 | 7.0 | 14.0 | 0.00 | 0.00 | 0.00 | 31 | 1015.1 |
| 20260502010542 | 60 | 345 | 8.0 | 14.0 | 0.00 | 0.00 | 0.00 | 31 | 1015.0 |
| 20260502010038 | 61 | 355 | 7.0 | 14.0 | 0.00 | 0.00 | 0.00 | 31 | 1015.0 |
| 20260502005536 | 61 | 8 | 10.0 | 14.0 | 0.00 | 0.00 | 0.00 | 30 | 1015.0 |
| 20260502005035 | 61 | 23 | 9.0 | 15.0 | 0.00 | 0.00 | 0.00 | 30 | 1015.0 |
| 20260502004534 | 61 | 18 | 9.0 | 16.0 | 0.00 | 0.00 | 0.00 | 30 | 1015.0 |
| 20260502004034 | 61 | 24 | 10.0 | 16.0 | 0.00 | 0.00 | 0.00 | 30 | 1015.0 |
| 20260502003530 | 61 | 336 | 11.0 | 16.0 | 0.00 | 0.00 | 0.00 | 30 | 1015.0 |
| 20260502003029 | 61 | 330 | 11.0 | 16.0 | 0.00 | 0.00 | 0.00 | 31 | 1015.0 |
| 20260502002529 | 62 | 12 | 10.0 | 15.0 | 0.00 | 0.00 | 0.00 | 31 | 1015.0 |
| 20260502002026 | 62 | 7 | 10.0 | 15.0 | 0.00 | 0.00 | 0.00 | 31 | 1015.1 |
| 20260502001525 | 62 | 23 | 9.0 | 15.0 | 0.00 | 0.00 | 0.00 | 31 | 1015.1 |
| 20260502001023 | 62 | 341 | 9.0 | 15.0 | 0.00 | 0.00 | 0.00 | 31 | 1015.1 |
| 20260502000522 | 62 | 359 | 10.0 | 19.0 | 0.00 | 0.00 | 0.00 | 31 | 1015.1 |
| 20260502000021 | 62 | 14 | 12.0 | 19.0 | 0.00 | 0.00 | 0.00 | 30 | 1015.0 |
| 20260501235519 | 63 | 345 | 10.0 | 15.0 | 0.00 | 0.00 | 0.00 | 30 | 1014.9 |
| 20260501235018 | 63 | 7 | 9.0 | 14.0 | 0.00 | 0.00 | 0.00 | 29 | 1015.0 |
| 20260501234517 | 63 | 355 | 9.0 | 17.0 | 0.00 | 0.00 | 0.00 | 30 | 1015.0 |
| 20260501234015 | 63 | 7 | 9.0 | 17.0 | 0.00 | 0.00 | 0.00 | 29 | 1015.0 |
| 20260501233514 | 63 | 345 | 8.0 | 14.0 | 0.00 | 0.00 | 0.00 | 28 | 1014.9 |
| 20260501233012 | 63 | 355 | 9.0 | 14.0 | 0.00 | 0.00 | 0.00 | 29 | 1014.9 |
| 20260501232510 | 63 | 345 | 6.0 | 14.0 | 0.00 | 0.00 | 0.00 | 29 | 1014.9 |
| 20260501232008 | 63 | 3 | 9.0 | 14.0 | 0.00 | 0.00 | 0.00 | 29 | 1015.0 |
| 20260501231507 | 63 | 7 | 4.0 | 15.0 | 0.00 | 0.00 | 0.00 | 29 | 1015.0 |
| 20260501231006 | 63 | 321 | 7.0 | 15.0 | 0.00 | 0.00 | 0.00 | 29 | 1015.0 |
| 20260501230505 | 63 | 332 | 9.0 | 14.0 | 0.00 | 0.00 | 0.00 | 29 | 1015.1 |
| 20260501230004 | 63 | 306 | 8.0 | 12.0 | 0.00 | 0.00 | 0.00 | 29 | 1015.2 |
| 20260501225502 | 62 | 54 | 4.0 | 12.0 | 0.00 | 0.00 | 0.00 | 28 | 1015.1 |
| 20260501225101 | 62 | 331 | 8.0 | 14.0 | 0.00 | 0.00 | 0.00 | 28 | 1015.2 |
| 20260501224603 | 62 | 6 | 6.0 | 14.0 | 0.00 | 0.00 | 0.00 | 28 | 1015.2 |
| 20260501224057 | 62 | 324 | 4.0 | 11.0 | 0.00 | 0.00 | 0.00 | 27 | 1015.3 |
| 20260501223556 | 62 | 313 | 4.0 | 13.0 | 0.00 | 0.00 | 0.00 | 29 | 1015.3 |
| 20260501223103 | 62 | 313 | 7.0 | 13.0 | 0.00 | 0.00 | 0.00 | 31 | 1015.4 |
| 20260501222553 | 62 | 333 | 8.0 | 13.0 | 0.00 | 0.00 | 0.00 | 28 | 1015.5 |
| 20260501222053 | 62 | 3 | 7.0 | 14.0 | 0.00 | 0.00 | 0.00 | 28 | 1015.6 |
| 20260501221550 | 62 | 355 | 7.0 | 13.0 | 0.00 | 0.00 | 0.00 | 28 | 1015.6 |
| 20260501221051 | 62 | 355 | 8.0 | 17.0 | 0.00 | 0.00 | 0.00 | 29 | 1015.7 |
| 20260501220550 | 62 | 328 | 10.0 | 17.0 | 0.00 | 0.00 | 0.00 | 29 | 1015.8 |
| 20260501220048 | 62 | 335 | 7.0 | 12.0 | 0.00 | 0.00 | 0.00 | 29 | 1016.0 |
| 20260501215547 | 62 | 298 | 8.0 | 16.0 | 0.00 | 0.00 | 0.00 | 29 | 1016.1 |
| 20260501215044 | 62 | 1 | 10.0 | 15.0 | 0.00 | 0.00 | 0.00 | 29 | 1016.1 |
| 20260501214553 | 62 | 355 | 9.0 | 15.0 | 0.00 | 0.00 | 0.00 | 31 | 1016.1 |
| 20260501214041 | 62 | 335 | 7.0 | 14.0 | 0.00 | 0.00 | 0.00 | 30 | 1016.3 |
| 20260501213539 | 62 | 355 | 5.0 | 15.0 | 0.00 | 0.00 | 0.00 | 29 | 1016.2 |
| 20260501213037 | 62 | 355 | 9.0 | 16.0 | 0.00 | 0.00 | 0.00 | 30 | 1016.2 |
| 20260501212536 | 62 | 359 | 11.0 | 16.0 | 0.00 | 0.00 | 0.00 | 30 | 1016.3 |
| 20260501212035 | 62 | 327 | 9.0 | 19.0 | 0.00 | 0.00 | 0.00 | 30 | 1016.3 |
| 20260501211537 | 62 | 355 | 7.0 | 19.0 | 0.00 | 0.00 | 0.00 | 31 | 1016.3 |
| 20260501211031 | 63 | 350 | 6.0 | 14.0 | 0.00 | 0.00 | 0.00 | 31 | 1016.3 |
| 20260501210529 | 63 | 26 | 5.0 | 16.0 | 0.00 | 0.00 | 0.00 | 31 | 1016.4 |
| 20260501210028 | 63 | 359 | 4.0 | 16.0 | 0.00 | 0.00 | 0.00 | 31 | 1016.4 |
| 20260501205527 | 63 | 53 | 11.0 | 16.0 | 0.00 | 0.00 | 0.00 | 32 | 1016.4 |
| 20260501205025 | 62 | 355 | 6.0 | 14.0 | 0.00 | 0.00 | 0.00 | 34 | 1016.4 |
| 20260501204533 | 61 | 310 | 5.0 | 10.0 | 0.00 | 0.00 | 0.00 | 33 | 1016.4 |
| 20260501204022 | 61 | 319 | 4.0 | 16.0 | 0.00 | 0.00 | 0.00 | 34 | 1016.4 |
| 20260501203521 | 61 | 303 | 10.0 | 16.0 | 0.00 | 0.00 | 0.00 | 33 | 1016.5 |
| 20260501203021 | 61 | 345 | 3.0 | 13.0 | 0.00 | 0.00 | 0.00 | 33 | 1016.3 |
| 20260501202520 | 61 | 2 | 5.0 | 13.0 | 0.00 | 0.00 | 0.00 | 34 | 1016.4 |
| 20260501202019 | 61 | 336 | 6.0 | 12.0 | 0.00 | 0.00 | 0.00 | 35 | 1016.5 |
| 20260501201517 | 61 | 159 | 1.0 | 14.0 | 0.00 | 0.00 | 0.00 | 34 | 1016.5 |
| 20260501201017 | 61 | 288 | 5.0 | 10.0 | 0.00 | 0.00 | 0.00 | 35 | 1016.6 |
| 20260501200514 | 61 | 355 | 3.0 | 11.0 | 0.00 | 0.00 | 0.00 | 35 | 1016.7 |
| 20260501200019 | 61 | 336 | 5.0 | 12.0 | 0.00 | 0.00 | 0.00 | 34 | 1016.6 |
| 20260501195511 | 61 | 4 | 7.0 | 13.0 | 0.00 | 0.00 | 0.00 | 35 | 1016.6 |
| 20260501195010 | 61 | 350 | 8.0 | 13.0 | 0.00 | 0.00 | 0.00 | 35 | 1016.7 |
| 20260501194510 | 61 | 34 | 7.0 | 13.0 | 0.00 | 0.00 | 0.00 | 36 | 1016.7 |
| 20260501194006 | 61 | 340 | 8.0 | 13.0 | 0.00 | 0.00 | 0.00 | 35 | 1016.7 |
| 20260501193506 | 60 | 40 | 5.0 | 14.0 | 0.00 | 0.00 | 0.00 | 35 | 1016.8 |
| 20260501193004 | 60 | 39 | 6.0 | 14.0 | 0.00 | 0.00 | 0.00 | 35 | 1016.9 |
| 20260501192503 | 59 | 6 | 8.0 | 13.0 | 0.00 | 0.00 | 0.00 | 36 | 1016.8 |
| 20260501192001 | 59 | 283 | 8.0 | 12.0 | 0.00 | 0.00 | 0.00 | 35 | 1016.8 |
| 20260501191559 | 60 | 350 | 1.0 | 10.0 | 0.00 | 0.00 | 0.00 | 35 | 1016.8 |
| 20260501191058 | 60 | 9 | 5.0 | 15.0 | 0.00 | 0.00 | 0.00 | 35 | 1016.8 |
| 20260501190557 | 60 | 3 | 12.0 | 15.0 | 0.00 | 0.00 | 0.00 | 36 | 1016.8 |
| 20260501185553 | 59 | 27 | 5.0 | 12.0 | 0.00 | 0.00 | 0.00 | 36 | 1017.0 |
| 20260501185052 | 59 | 313 | 7.0 | 13.0 | 0.00 | 0.00 | 0.00 | 37 | 1017.1 |
| 20260501184550 | 59 | 238 | 3.0 | 13.0 | 0.00 | 0.00 | 0.00 | 35 | 1017.2 |
| 20260501184051 | 60 | 355 | 3.0 | 10.0 | 0.00 | 0.00 | 0.00 | 35 | 1017.2 |
| 20260501183548 | 59 | 46 | 7.0 | 12.0 | 0.00 | 0.00 | 0.00 | 37 | 1017.2 |
| 20260501183047 | 58 | 20 | 5.0 | 13.0 | 0.00 | 0.00 | 0.00 | 38 | 1017.2 |
| 20260501182550 | 58 | 289 | 7.0 | 13.0 | 0.00 | 0.00 | 0.00 | 37 | 1017.3 |
| 20260501182044 | 58 | 333 | 5.0 | 13.0 | 0.00 | 0.00 | 0.00 | 37 | 1017.4 |
| 20260501181549 | 58 | 350 | 7.0 | 15.0 | 0.00 | 0.00 | 0.00 | 38 | 1017.4 |
| 20260501181043 | 59 | 3 | 9.0 | 15.0 | 0.00 | 0.00 | 0.00 | 38 | 1017.3 |
| 20260501180539 | 58 | 90 | 4.0 | 14.0 | 0.00 | 0.00 | 0.00 | 38 | 1017.5 |
| 20260501180038 | 58 | 18 | 5.0 | 14.0 | 0.00 | 0.00 | 0.00 | 39 | 1017.5 |